Theta_e
296 288 284 285 290 287 290 288 286 289 293 293 292 292 295 297 292 291 292 293 293 295 296 299 305 325 326 327 327 328 328 328 329 326 325 328 328 329 329 330 330 330 330 329
291 284 290 291 291 288 288 286 285 289 290 288 288 290 294 295 293 293 293 292 292 292 293 296 299 312 321 325 327 327 328 329 329 329 328 328 330 330 331 330 330 330 330 330
285 288 293 291 288 286 285 283 283 285 287 287 284 283 286 290 291 291 293 293 294 293 292 294 297 298 301 303 303 316 327 328 330 329 327 328 330 330 329 330 330 330 331 330
287 290 290 289 287 288 283 288 287 285 282 278 282 276 281 286 288 290 291 291 292 294 294 294 294 294 295 298 303 306 320 327 328 331 329 329 327 326 328 327 329 330 331 330
284 286 287 287 287 289 286 289 287 285 282 281 278 276 280 284 284 287 288 290 291 292 292 291 291 292 293 294 297 299 304 307 309 325 330 329 328 328 326 326 327 329 330 330
285 291 290 289 291 290 290 286 285 283 281 275 279 276 277 280 284 286 290 291 291 290 290 289 290 291 290 291 293 295 298 300 303 309 316 325 326 326 325 325 326 327 328 328
283 284 289 290 288 290 287 282 274 272 272 273 278 276 279 284 286 286 288 288 288 288 288 288 288 288 288 289 289 292 292 293 298 301 303 306 311 320 325 324 325 323 320 317
276 275 285 289 287 285 284 282 275 268 268 274 279 275 279 288 289 289 289 288 287 286 286 286 285 285 286 286 286 287 289 289 291 296 296 299 303 306 307 307 309 307 305 303
277 277 287 289 290 289 284 280 283 277 269 272 277 280 283 288 288 287 286 286 285 284 284 284 283 283 283 283 284 284 285 287 288 292 293 294 296 299 301 303 303 302 303 302
282 276 285 287 290 289 287 287 278 275 264 265 275 277 277 283 285 286 284 283 283 283 282 282 281 281 282 282 282 283 284 284 286 288 291 291 292 294 295 295 296 297 297 298
283 279 280 286 283 282 283 282 282 280 277 271 270 274 284 284 286 287 285 284 283 282 281 280 280 280 281 281 281 282 282 283 284 286 287 289 290 290 291 290 290 291 291 291
285 280 276 280 286 288 286 283 283 276 271 274 276 275 286 286 287 287 285 284 282 281 280 279 279 279 279 279 280 281 282 282 283 285 286 287 288 288 287 287 288 288 287 288
285 275 273 276 280 284 283 285 286 285 283 275 272 274 287 286 285 285 284 283 282 281 279 278 278 278 278 278 279 280 282 283 284 284 285 285 285 285 285 285 285 285 285 285
287 278 273 271 275 279 278 282 284 281 276 276 277 278 282 284 286 285 284 283 281 280 279 278 277 277 278 278 278 278 281 282 282 283 283 282 283 283 283 284 283 283 283 283
280 271 277 276 277 279 277 279 281 279 277 277 279 280 283 285 284 286 286 283 282 280 279 278 277 277 277 277 277 277 278 280 281 281 281 281 282 282 282 282 281 281 281 281
281 271 273 269 277 279 274 278 279 277 276 275 276 276 284 286 284 285 285 283 282 281 280 279 279 279 278 278 277 278 277 277 278 277 278 279 279 279 279 279 279 279 279 279
275 269 267 265 270 270 265 273 278 279 280 277 271 279 281 283 285 285 284 283 283 281 281 280 279 279 279 278 278 276 275 277 277 277 277 277 278 277 277 278 278 277 277 278
269 268 264 263 264 258 273 274 276 278 280 281 280 281 282 284 285 286 285 284 283 282 280 280 279 278 278 277 276 276 276 276 276 275 276 276 276 276 276 276 275 275 276 277
277 267 264 264 259 265 272 274 274 273 273 276 276 277 279 280 283 283 284 284 284 283 281 279 278 277 276 276 276 276 275 274 274 274 274 275 275 275 275 275 274 275 275 276
276 271 265 258 255 256 269 274 277 277 269 276 276 277 278 281 279 281 280 281 281 281 279 278 277 277 276 276 276 275 274 274 273 273 274 274 275 274 274 274 274 275 275 276
265 262 257 263 254 262 272 275 277 265 270 277 277 276 277 280 281 279 278 279 278 278 278 279 278 278 277 276 276 274 273 273 273 273 273 273 274 274 274 274 274 274 274 274
263 258 260 257 256 259 273 275 273 275 276 277 276 276 277 278 277 277 275 276 276 275 276 276 276 276 276 277 277 275 274 272 272 272 271 271 272 273 273 273 272 272 272 271
264 267 264 266 267 272 273 276 277 278 278 277 277 277 277 277 273 272 271 271 272 273 274 273 274 275 275 275 276 273 271 271 270 270 269 269 271 272 272 271 270 269 270 269
270 269 270 269 270 273 275 275 277 278 278 278 279 278 277 274 270 271 268 269 269 268 269 267 273 274 272 272 271 269 269 269 268 267 268 268 269 268 269 271 270 269 268 267
271 272 270 270 272 270 274 274 276 275 274 274 272 273 275 273 273 272 270 269 268 268 265 265 268 268 268 266 266 265 267 267 267 267 267 266 266 266 267 268 268 269 268 269
272 273 272 271 276 275 274 270 269 271 271 273 272 270 269 271 274 271 270 270 269 269 266 267 267 267 266 264 264 263 265 266 265 265 265 265 265 263 264 264 264 271 272 274
Wind_Speed
5 4 12 10 7 2 6 4 3 2 8 8 9 8 12 7 5 6 6 6 5 8 5 2 5 9 8 7 9 11 11 10 8 4 3 3 5 3 4 4 6 7 8 8
4 4 6 6 9 5 13 13 7 2 0 0 4 12 14 6 6 6 8 6 6 4 3 6 8 6 5 8 7 9 12 11 9 7 5 3 5 3 4 5 6 7 7 7
5 3 8 7 7 8 4 6 4 4 2 3 3 5 4 4 5 4 4 5 4 3 6 6 8 9 8 7 5 2 7 9 9 7 2 2 2 3 3 4 5 5 7 7
4 2 9 6 7 10 7 4 3 6 5 4 0 5 5 5 7 5 7 6 5 5 6 6 7 8 9 8 6 6 2 5 5 8 10 11 8 8 7 5 4 5 7 8
4 4 6 7 5 7 4 7 7 4 4 3 1 2 7 2 4 8 4 1 7 8 7 7 7 7 6 9 9 8 7 9 7 3 7 7 8 6 2 2 7 7 7 9
4 1 4 5 4 5 7 7 7 4 2 1 5 5 5 4 4 3 5 6 8 7 7 7 6 7 7 8 9 9 9 8 9 7 7 3 6 4 3 4 5 5 5 5
1 0 1 3 7 2 4 5 3 3 1 4 0 2 7 4 6 5 7 6 7 7 7 8 9 8 9 10 10 9 10 9 9 8 8 7 6 3 5 5 3 3 2 2
5 2 5 3 5 7 4 6 6 8 5 2 2 5 4 3 6 8 9 8 7 7 7 8 8 8 9 9 10 8 9 8 9 8 9 8 7 4 5 6 4 4 5 5
5 1 1 2 3 7 4 3 3 6 3 3 4 4 2 4 7 7 6 7 6 6 7 7 7 7 7 7 8 8 8 7 7 8 7 8 8 7 7 7 7 6 6 6
3 5 3 1 3 4 4 7 4 4 4 3 3 1 0 6 2 5 3 4 4 4 5 5 5 6 5 5 5 6 6 6 6 7 7 7 9 8 8 8 10 8 9 9
3 4 3 3 5 2 3 3 4 4 4 4 2 1 3 5 8 6 5 4 4 4 3 4 5 5 5 5 6 6 7 7 8 8 7 8 9 9 10 9 10 8 8 9
1 4 4 3 3 3 1 2 5 4 4 1 2 2 2 2 3 5 5 5 4 4 3 3 4 5 5 6 6 6 6 7 7 7 8 9 9 9 11 10 10 10 10 10
4 2 3 2 2 2 3 2 4 5 2 3 5 4 1 2 2 2 5 5 5 5 4 3 3 3 4 5 5 6 7 7 7 7 7 8 9 9 10 9 9 10 9 11
5 3 4 5 3 3 4 4 3 3 3 2 3 2 4 4 5 6 5 5 6 6 5 3 3 2 3 4 5 5 6 6 6 7 8 8 8 8 8 9 10 10 9 10
5 5 2 4 4 3 2 3 5 4 3 3 3 2 7 7 5 6 7 6 6 6 6 6 5 4 3 4 5 5 5 6 6 7 7 7 7 8 8 9 9 9 10 9
3 3 3 3 6 4 2 3 1 2 2 2 1 6 5 8 6 4 6 7 7 7 7 7 6 5 5 4 4 5 4 5 5 6 6 5 7 7 8 8 8 9 9 9
4 5 4 3 4 3 5 6 5 3 3 6 4 8 3 5 7 7 5 8 8 7 7 8 8 6 5 5 5 5 4 5 6 6 5 6 6 7 7 7 8 8 8 8
5 5 3 1 4 3 6 2 6 5 4 6 5 6 6 8 6 6 5 6 7 8 8 7 6 5 5 5 5 5 5 5 5 5 5 5 5 6 6 7 7 7 6 7
6 5 5 5 3 6 5 2 3 3 2 4 3 4 5 6 4 4 3 5 7 7 7 7 7 6 5 6 5 6 5 5 5 5 5 4 5 5 5 6 6 5 6 6
6 9 6 4 6 6 6 1 2 2 5 5 2 4 5 3 0 4 5 6 1 5 6 8 9 7 7 5 5 5 4 4 5 5 4 4 5 5 5 5 5 3 4 5
5 5 5 3 2 9 8 3 1 8 7 4 4 1 3 1 4 2 5 4 3 3 7 8 8 8 8 6 5 4 4 4 3 4 4 5 4 5 5 4 3 3 4 4
7 7 4 3 4 8 6 5 6 6 1 0 1 1 2 3 3 3 2 2 3 5 6 6 8 7 6 7 7 5 4 4 4 5 4 4 3 3 3 4 2 4 4 4
2 8 6 9 8 5 5 4 4 4 3 3 2 3 3 4 3 3 3 3 3 5 5 3 6 7 4 5 5 6 4 5 4 5 5 4 3 3 2 2 3 3 3 3
5 4 3 4 5 8 6 5 5 6 7 5 5 4 5 4 4 5 3 4 4 4 6 3 6 7 6 5 5 4 7 6 5 4 4 4 4 3 2 2 2 2 2 2
5 5 5 5 6 5 7 7 6 4 3 4 2 4 6 5 5 5 5 6 6 6 4 4 7 6 7 6 6 5 6 6 5 5 4 2 2 2 1 1 2 1 1 3
7 9 6 8 8 7 6 4 3 5 6 8 6 3 5 5 7 5 6 5 6 7 5 6 7 6 6 5 4 5 6 6 6 4 4 3 3 1 1 1 1 2 4 5
Wind_Direction
151 141 189 190 176 51 57 270 122 339 188 163 266 274 279 262 248 180 192 229 205 215 240 306 259 205 167 180 177 181 182 186 178 165 150 170 178 175 184 191 200 191 193 193
108 206 165 151 147 115 174 226 202 219 259 76 194 235 248 214 248 202 192 206 221 182 167 49 19 37 162 186 188 189 194 188 187 188 188 170 157 172 195 192 196 192 190 192
148 213 152 156 161 177 230 180 196 189 85 50 326 276 255 237 211 267 252 211 239 216 127 66 37 29 33 52 23 292 206 189 187 186 182 70 76 101 160 199 212 196 192 191
210 335 167 142 173 182 220 204 149 135 126 175 179 268 250 227 234 197 242 217 214 109 82 67 45 28 19 8 2 4 353 183 203 182 186 203 203 200 211 192 186 191 193 205
223 153 135 161 167 152 207 146 159 130 101 124 196 144 266 28 250 238 240 156 75 67 66 59 48 38 16 11 5 359 23 43 24 302 218 212 218 218 194 194 198 201 198 207
196 340 162 173 146 172 152 94 60 48 80 308 213 145 269 198 224 99 50 59 69 57 59 54 42 36 23 15 11 10 10 35 22 17 0 258 219 214 190 217 213 198 197 203
92 340 257 135 117 52 106 91 50 15 337 214 152 147 263 318 348 327 141 94 66 53 44 43 31 31 25 15 13 14 10 12 18 29 23 17 7 335 228 219 221 169 114 49
146 185 194 192 152 159 168 162 152 184 193 157 117 220 259 25 38 55 86 95 82 65 50 44 33 26 25 20 6 18 20 6 8 31 31 14 31 39 47 23 40 55 67 52
133 207 346 152 128 144 180 154 148 102 41 85 208 270 98 90 64 57 64 72 64 60 52 44 37 36 22 15 18 14 19 5 8 32 36 33 29 40 57 51 53 63 53 62
176 107 1 68 95 30 152 157 77 25 114 255 287 279 237 349 28 133 104 97 84 67 54 47 43 37 32 29 15 22 21 22 2 30 41 48 42 39 54 63 54 56 60 47
131 80 302 123 29 130 122 130 65 111 123 170 148 254 25 322 310 188 140 122 118 100 76 56 40 31 32 34 29 26 21 14 24 32 35 49 51 48 59 57 66 51 51 72
110 112 82 72 50 31 41 83 141 140 251 249 124 267 10 1 353 105 138 138 135 130 115 78 55 40 31 30 30 26 24 25 18 30 42 50 53 58 60 63 55 66 59 58
172 5 96 55 356 48 84 96 78 85 73 207 133 261 167 141 62 142 160 174 154 146 143 120 78 61 54 43 35 29 35 32 25 35 47 53 53 59 62 67 62 65 66 62
77 83 146 164 164 134 144 156 117 100 129 179 180 261 252 270 226 205 216 185 176 170 171 168 144 123 84 63 58 46 52 45 48 48 52 56 55 62 67 67 65 65 66 69
83 107 64 47 20 42 141 139 136 148 171 141 242 223 261 251 268 237 191 168 172 182 182 181 180 153 111 87 70 63 56 57 59 69 63 58 60 64 67 67 68 67 65 64
19 116 114 42 20 31 48 314 335 56 106 314 330 271 272 305 299 198 187 177 188 190 190 180 168 164 154 133 108 86 65 62 63 58 57 53 55 61 61 64 66 67 63 61
66 112 65 287 356 21 359 216 195 195 180 155 184 237 319 304 295 287 217 195 194 188 179 180 179 168 153 145 131 111 98 78 68 70 55 56 60 67 61 64 68 66 64 65
111 82 60 144 19 38 242 313 216 201 235 215 282 278 288 268 287 272 216 198 193 180 176 171 157 147 137 130 120 125 114 97 93 83 75 65 69 73 66 67 66 61 59 58
44 99 80 117 170 284 316 150 163 182 237 187 226 279 282 298 303 299 214 216 208 184 165 161 146 135 131 142 144 132 126 122 113 102 94 84 79 78 79 80 77 71 72 69
48 52 98 73 121 189 237 140 146 114 308 164 169 325 328 346 85 268 347 345 258 153 142 143 140 126 135 146 142 135 143 140 133 130 123 106 104 101 89 84 78 72 89 92
21 9 124 166 183 289 248 214 52 88 238 149 158 229 345 305 218 294 336 340 31 94 131 129 138 143 148 141 136 142 142 137 105 106 103 92 86 98 106 103 95 95 83 83
166 138 181 73 65 286 195 77 166 210 265 198 209 231 270 250 271 281 359 104 113 126 121 128 128 136 137 142 143 149 183 142 129 113 91 80 80 89 98 117 108 102 110 107
294 181 181 180 210 239 237 204 205 167 190 206 216 223 242 276 239 252 207 165 161 151 127 105 133 136 138 149 159 169 166 148 144 131 126 117 97 89 119 138 117 93 106 115
253 168 205 84 272 233 236 263 243 205 217 225 226 229 183 212 218 246 210 183 168 161 160 144 146 164 174 172 165 173 160 147 144 137 144 138 133 123 108 101 101 119 153 137
199 128 183 264 281 324 268 223 229 222 226 243 242 205 210 184 219 205 215 198 190 178 172 169 178 180 186 177 177 171 165 150 156 147 148 129 118 150 125 94 153 177 211 177
184 190 179 218 208 175 227 228 184 176 223 225 186 235 238 195 217 182 208 197 183 191 173 181 194 183 191 176 176 178 160 154 152 155 165 163 126 144 149 159 18 272 209 213